Time,TemperatureF,DewpointF,PressureIn,WindDirection,WindDirectionDegrees,WindSpeedMPH,WindSpeedGustMPH,Humidity,HourlyPrecipIn,Conditions,Clouds,dailyrainin,SoftwareType,DateUTC
2013-02-10 00:01:00,16.0,16.0,-100.00,NW,315,22.0,29.0,99,-99.99,,,-99.99,,2013-02-10 07:01:00,
2013-02-10 00:11:00,16.0,16.0,-100.00,NW,315,21.0,29.0,99,-99.99,,,-99.99,,2013-02-10 07:11:00,
2013-02-10 00:21:00,16.0,16.0,-100.00,NW,315,22.0,30.0,99,-99.99,,,-99.99,,2013-02-10 07:21:00,
2013-02-10 00:31:00,16.0,16.0,-100.00,NW,315,21.0,28.0,99,-99.99,,,-99.99,,2013-02-10 07:31:00,
2013-02-10 00:41:00,16.0,16.0,-100.00,NW,305,22.0,29.0,99,-99.99,,,-99.99,,2013-02-10 07:41:00,
2013-02-10 00:51:00,16.0,16.0,-100.00,NW,310,22.0,28.0,99,-99.99,,,-99.99,,2013-02-10 07:51:00,
2013-02-10 01:01:00,16.0,16.0,-100.00,NW,315,25.0,30.0,99,-99.99,,,-99.99,,2013-02-10 08:01:00,
2013-02-10 01:11:00,16.0,16.0,-100.00,NW,315,22.0,30.0,99,-99.99,,,-99.99,,2013-02-10 08:11:00,
2013-02-10 01:21:00,15.0,15.0,-100.00,NW,315,24.0,30.0,99,-99.99,,,-99.99,,2013-02-10 08:21:00,
2013-02-10 01:32:00,15.0,15.0,-100.00,NW,315,24.0,34.0,99,-99.99,,,-99.99,,2013-02-10 08:32:00,
2013-02-10 01:43:00,15.0,15.0,-100.00,NW,315,23.0,30.0,99,-99.99,,,-99.99,,2013-02-10 08:43:00,
2013-02-10 01:52:00,15.0,15.0,-100.00,NW,310,21.0,31.0,99,-99.99,,,-99.99,,2013-02-10 08:52:00,
2013-02-10 02:02:00,15.0,15.0,-100.00,NW,310,23.0,31.0,99,-99.99,,,-99.99,,2013-02-10 09:02:00,
2013-02-10 02:11:00,15.0,15.0,-100.00,NW,315,22.0,28.0,99,-99.99,,,-99.99,,2013-02-10 09:11:00,
2013-02-10 02:21:00,15.0,15.0,-100.00,NW,315,22.0,28.0,99,-99.99,,,-99.99,,2013-02-10 09:21:00,
2013-02-10 02:31:00,15.0,15.0,-100.00,NW,310,23.0,29.0,99,-99.99,,,-99.99,,2013-02-10 09:31:00,
2013-02-10 02:41:00,15.0,15.0,-100.00,NW,315,22.0,29.0,99,-99.99,,,-99.99,,2013-02-10 09:41:00,
2013-02-10 02:51:00,15.0,15.0,-100.00,NW,315,21.0,30.0,99,-99.99,,,-99.99,,2013-02-10 09:51:00,
2013-02-10 03:01:00,15.0,15.0,-100.00,NW,315,21.0,27.0,99,-99.99,,,-99.99,,2013-02-10 10:01:00,
2013-02-10 03:11:00,15.0,15.0,-100.00,NW,315,23.0,28.0,99,-99.99,,,-99.99,,2013-02-10 10:11:00,
2013-02-10 03:21:00,15.0,15.0,-100.00,NW,305,21.0,27.0,99,-99.99,,,-99.99,,2013-02-10 10:21:00,
2013-02-10 03:31:00,15.0,15.0,-100.00,NW,315,22.0,29.0,99,-99.99,,,-99.99,,2013-02-10 10:31:00,
2013-02-10 03:41:00,14.0,14.0,-100.00,NW,315,23.0,30.0,99,-99.99,,,-99.99,,2013-02-10 10:41:00,
2013-02-10 03:51:00,14.0,14.0,-100.00,NW,305,23.0,32.0,99,-99.99,,,-99.99,,2013-02-10 10:51:00,
2013-02-10 04:01:00,14.0,14.0,-100.00,NW,315,21.0,29.0,99,-99.99,,,-99.99,,2013-02-10 11:01:00,
2013-02-10 04:11:00,14.0,14.0,-100.00,NW,310,23.0,30.0,99,-99.99,,,-99.99,,2013-02-10 11:11:00,
2013-02-10 04:21:00,14.0,14.0,-100.00,NW,315,22.0,30.0,99,-99.99,,,-99.99,,2013-02-10 11:21:00,
2013-02-10 04:32:00,14.0,14.0,-100.00,NW,305,22.0,27.0,99,-99.99,,,-99.99,,2013-02-10 11:32:00,
2013-02-10 04:42:00,14.0,14.0,-100.00,NW,305,21.0,29.0,99,-99.99,,,-99.99,,2013-02-10 11:42:00,
2013-02-10 04:52:00,14.0,14.0,-100.00,NW,310,21.0,29.0,99,-99.99,,,-99.99,,2013-02-10 11:52:00,
2013-02-10 05:01:00,15.0,15.0,-100.00,NW,305,24.0,30.0,99,-99.99,,,-99.99,,2013-02-10 12:01:00,
2013-02-10 05:12:00,15.0,15.0,-100.00,NW,305,24.0,29.0,99,-99.99,,,-99.99,,2013-02-10 12:12:00,
2013-02-10 05:21:00,15.0,15.0,-100.00,NW,305,21.0,30.0,99,-99.99,,,-99.99,,2013-02-10 12:21:00,
2013-02-10 05:32:00,15.0,15.0,-100.00,NW,310,20.0,27.0,99,-99.99,,,-99.99,,2013-02-10 12:32:00,
2013-02-10 05:41:00,15.0,15.0,-100.00,NW,315,21.0,31.0,99,-99.99,,,-99.99,,2013-02-10 12:41:00,
2013-02-10 05:52:00,14.0,14.0,-100.00,NW,310,24.0,30.0,99,-99.99,,,-99.99,,2013-02-10 12:52:00,
2013-02-10 06:02:00,14.0,14.0,-100.00,NW,310,24.0,32.0,99,-99.99,,,-99.99,,2013-02-10 13:02:00,
2013-02-10 06:11:00,14.0,14.0,-100.00,NW,310,23.0,31.0,99,-99.99,,,-99.99,,2013-02-10 13:11:00,
2013-02-10 06:21:00,14.0,14.0,-100.00,NW,305,21.0,29.0,99,-99.99,,,-99.99,,2013-02-10 13:21:00,
2013-02-10 06:31:00,14.0,14.0,-100.00,NW,315,24.0,31.0,99,-99.99,,,-99.99,,2013-02-10 13:31:00,
2013-02-10 06:41:00,14.0,14.0,-100.00,NW,310,23.0,32.0,99,-99.99,,,-99.99,,2013-02-10 13:41:00,
2013-02-10 06:51:00,14.0,14.0,-100.00,NW,315,21.0,29.0,99,-99.99,,,-99.99,,2013-02-10 13:51:00,
2013-02-10 07:02:00,14.0,14.0,-100.00,NW,305,20.0,30.0,99,-99.99,,,-99.99,,2013-02-10 14:02:00,
2013-02-10 07:11:00,14.0,14.0,-100.00,NW,310,22.0,28.0,99,-99.99,,,-99.99,,2013-02-10 14:11:00,
2013-02-10 07:21:00,13.0,13.0,-100.00,NW,305,20.0,29.0,99,-99.99,,,-99.99,,2013-02-10 14:21:00,
2013-02-10 07:32:00,13.0,13.0,-100.00,NW,310,22.0,29.0,99,-99.99,,,-99.99,,2013-02-10 14:32:00,
2013-02-10 07:41:00,13.0,13.0,-100.00,NW,310,21.0,28.0,99,-99.99,,,-99.99,,2013-02-10 14:41:00,
2013-02-10 07:52:00,13.0,13.0,-100.00,NW,305,19.0,27.0,99,-99.99,,,-99.99,,2013-02-10 14:52:00,
2013-02-10 08:02:00,13.0,13.0,-100.00,NW,315,22.0,29.0,99,-99.99,,,-99.99,,2013-02-10 15:02:00,
2013-02-10 08:11:00,13.0,13.0,-100.00,NW,310,22.0,28.0,99,-99.99,,,-99.99,,2013-02-10 15:11:00,
2013-02-10 08:21:00,13.0,13.0,-100.00,NW,310,20.0,27.0,99,-99.99,,,-99.99,,2013-02-10 15:21:00,
2013-02-10 08:32:00,13.0,13.0,-100.00,NW,305,20.0,27.0,99,-99.99,,,-99.99,,2013-02-10 15:32:00,
2013-02-10 08:42:00,14.0,14.0,-100.00,NW,305,21.0,27.0,99,-99.99,,,-99.99,,2013-02-10 15:42:00,
2013-02-10 08:51:00,13.0,13.0,-100.00,NW,310,18.0,26.0,99,-99.99,,,-99.99,,2013-02-10 15:51:00,
2013-02-10 09:02:00,13.0,13.0,-100.00,NW,305,21.0,26.0,99,-99.99,,,-99.99,,2013-02-10 16:02:00,
2013-02-10 09:11:00,14.0,14.0,-100.00,NW,305,19.0,26.0,99,-99.99,,,-99.99,,2013-02-10 16:11:00,
2013-02-10 09:21:00,14.0,14.0,-100.00,NW,305,17.0,26.0,99,-99.99,,,-99.99,,2013-02-10 16:21:00,
2013-02-10 09:32:00,14.0,14.0,-100.00,NW,310,20.0,25.0,99,-99.99,,,-99.99,,2013-02-10 16:32:00,
2013-02-10 09:42:00,14.0,14.0,-100.00,WNW,300,21.0,29.0,99,-99.99,,,-99.99,,2013-02-10 16:42:00,
2013-02-10 09:52:00,14.0,14.0,-100.00,NW,305,19.0,29.0,99,-99.99,,,-99.99,,2013-02-10 16:52:00,
2013-02-10 10:01:00,14.0,14.0,-100.00,NW,305,19.0,26.0,99,-99.99,,,-99.99,,2013-02-10 17:01:00,
2013-02-10 10:11:00,14.0,14.0,-100.00,NW,305,21.0,28.0,99,-99.99,,,-99.99,,2013-02-10 17:11:00,
2013-02-10 10:21:00,14.0,14.0,-100.00,NW,305,23.0,29.0,99,-99.99,,,-99.99,,2013-02-10 17:21:00,
2013-02-10 10:32:00,15.0,15.0,-100.00,NW,310,23.0,28.0,99,-99.99,,,-99.99,,2013-02-10 17:32:00,
2013-02-10 10:42:00,14.0,14.0,-100.00,NW,310,20.0,27.0,99,-99.99,,,-99.99,,2013-02-10 17:42:00,
2013-02-10 10:52:00,14.0,14.0,-100.00,NW,315,19.0,27.0,99,-99.99,,,-99.99,,2013-02-10 17:52:00,
2013-02-10 11:02:00,14.0,14.0,-100.00,NW,315,22.0,29.0,99,-99.99,,,-99.99,,2013-02-10 18:02:00,
2013-02-10 11:11:00,15.0,15.0,-100.00,NW,320,22.0,29.0,99,-99.99,,,-99.99,,2013-02-10 18:11:00,
2013-02-10 11:21:00,15.0,15.0,-100.00,NW,315,22.0,27.0,99,-99.99,,,-99.99,,2013-02-10 18:21:00,
2013-02-10 11:32:00,15.0,15.0,-100.00,NW,320,22.0,27.0,99,-99.99,,,-99.99,,2013-02-10 18:32:00,
2013-02-10 11:42:00,15.0,15.0,-100.00,NW,315,21.0,29.0,99,-99.99,,,-99.99,,2013-02-10 18:42:00,
2013-02-10 11:52:00,15.0,15.0,-100.00,NW,315,19.0,28.0,99,-99.99,,,-99.99,,2013-02-10 18:52:00,
2013-02-10 12:01:00,15.0,15.0,-100.00,NW,310,20.0,24.0,99,-99.99,,,-99.99,,2013-02-10 19:01:00,
2013-02-10 12:11:00,14.0,14.0,-100.00,NW,315,21.0,26.0,99,-99.99,,,-99.99,,2013-02-10 19:11:00,
2013-02-10 12:21:00,14.0,14.0,-100.00,NW,320,22.0,26.0,99,-99.99,,,-99.99,,2013-02-10 19:21:00,
2013-02-10 12:32:00,15.0,15.0,-100.00,NW,320,21.0,30.0,99,-99.99,,,-99.99,,2013-02-10 19:32:00,
2013-02-10 12:42:00,14.0,14.0,-100.00,NW,325,21.0,30.0,98,-99.99,,,-99.99,,2013-02-10 19:42:00,
2013-02-10 12:51:00,14.0,14.0,-100.00,NW,325,27.0,32.0,97,-99.99,,,-99.99,,2013-02-10 19:51:00,
2013-02-10 13:02:00,14.0,14.0,-100.00,NW,320,24.0,30.0,98,-99.99,,,-99.99,,2013-02-10 20:02:00,
2013-02-10 13:11:00,15.0,15.0,-100.00,NNW,330,24.0,30.0,98,-99.99,,,-99.99,,2013-02-10 20:11:00,
2013-02-10 13:21:00,14.0,13.0,-100.00,NNW,345,27.0,32.0,95,-99.99,,,-99.99,,2013-02-10 20:21:00,
2013-02-10 13:32:00,15.0,13.0,-100.00,NNW,330,22.0,30.0,94,-99.99,,,-99.99,,2013-02-10 20:32:00,
2013-02-10 13:42:00,15.0,13.0,-100.00,NNW,335,22.0,29.0,92,-99.99,,,-99.99,,2013-02-10 20:42:00,
2013-02-10 13:52:00,15.0,13.0,-100.00,NNW,330,20.0,28.0,91,-99.99,,,-99.99,,2013-02-10 20:52:00,
2013-02-10 14:02:00,15.0,13.0,-100.00,NW,325,22.0,27.0,90,-99.99,,,-99.99,,2013-02-10 21:02:00,
2013-02-10 14:11:00,15.0,12.0,-100.00,NW,320,17.0,25.0,88,-99.99,,,-99.99,,2013-02-10 21:11:00,
2013-02-10 14:21:00,14.0,12.0,-100.00,NW,315,17.0,22.0,88,-99.99,,,-99.99,,2013-02-10 21:21:00,
2013-02-10 14:32:00,15.0,12.0,-100.00,NW,320,17.0,22.0,88,-99.99,,,-99.99,,2013-02-10 21:32:00,
2013-02-10 14:42:00,14.0,12.0,-100.00,NW,310,17.0,21.0,89,-99.99,,,-99.99,,2013-02-10 21:42:00,
2013-02-10 14:51:00,14.0,11.0,-100.00,NW,320,17.0,21.0,88,-99.99,,,-99.99,,2013-02-10 21:51:00,
2013-02-10 15:02:00,14.0,11.0,-100.00,NW,320,18.0,23.0,90,-99.99,,,-99.99,,2013-02-10 22:02:00,
2013-02-10 15:11:00,14.0,12.0,-100.00,NW,320,14.0,19.0,91,-99.99,,,-99.99,,2013-02-10 22:11:00,
2013-02-10 15:21:00,13.0,12.0,-100.00,NW,310,15.0,19.0,92,-99.99,,,-99.99,,2013-02-10 22:21:00,
2013-02-10 15:32:00,13.0,12.0,-100.00,NW,310,15.0,19.0,92,-99.99,,,-99.99,,2013-02-10 22:32:00,
2013-02-10 15:42:00,13.0,11.0,-100.00,NW,315,14.0,17.0,91,-99.99,,,-99.99,,2013-02-10 22:42:00,
2013-02-10 15:52:00,13.0,11.0,-100.00,NW,315,14.0,17.0,91,-99.99,,,-99.99,,2013-02-10 22:52:00,
2013-02-10 16:02:00,13.0,11.0,-100.00,NW,320,14.0,19.0,90,-99.99,,,-99.99,,2013-02-10 23:02:00,
2013-02-10 16:11:00,13.0,11.0,-100.00,NW,320,16.0,20.0,90,-99.99,,,-99.99,,2013-02-10 23:11:00,
2013-02-10 16:22:00,13.0,10.0,-100.00,NW,320,18.0,22.0,88,-99.99,,,-99.99,,2013-02-10 23:22:00,
2013-02-10 16:32:00,13.0,10.0,-100.00,NW,320,16.0,22.0,88,-99.99,,,-99.99,,2013-02-10 23:32:00,
2013-02-10 16:42:00,12.0,10.0,-100.00,NW,320,16.0,21.0,88,-99.99,,,-99.99,,2013-02-10 23:42:00,
2013-02-10 16:52:00,12.0,10.0,-100.00,NW,320,13.0,20.0,89,-99.99,,,-99.99,,2013-02-10 23:52:00,
2013-02-10 17:02:00,12.0,10.0,-100.00,NW,315,14.0,17.0,90,-99.99,,,-99.99,,2013-02-11 00:02:00,
2013-02-10 17:11:00,11.0,10.0,-100.00,NW,315,14.0,17.0,92,-99.99,,,-99.99,,2013-02-11 00:11:00,
2013-02-10 17:22:00,11.0,10.0,-100.00,NW,315,12.0,17.0,93,-99.99,,,-99.99,,2013-02-11 00:22:00,
2013-02-10 17:32:00,11.0,10.0,-100.00,NW,315,12.0,15.0,95,-99.99,,,-99.99,,2013-02-11 00:32:00,
2013-02-10 17:42:00,10.0,9.0,-100.00,NW,310,12.0,16.0,96,-99.99,,,-99.99,,2013-02-11 00:42:00,
2013-02-10 17:51:00,10.0,10.0,-100.00,NW,310,13.0,16.0,97,-99.99,,,-99.99,,2013-02-11 00:51:00,
2013-02-10 18:01:00,10.0,9.0,-100.00,NW,315,13.0,17.0,97,-99.99,,,-99.99,,2013-02-11 01:01:00,
2013-02-10 18:11:00,10.0,9.0,-100.00,NW,315,11.0,16.0,98,-99.99,,,-99.99,,2013-02-11 01:11:00,
2013-02-10 18:21:00,10.0,10.0,-100.00,NW,310,11.0,15.0,99,-99.99,,,-99.99,,2013-02-11 01:21:00,
2013-02-10 18:32:00,10.0,10.0,-100.00,NW,315,12.0,14.0,99,-99.99,,,-99.99,,2013-02-11 01:32:00,
2013-02-10 18:41:00,9.0,9.0,-100.00,NW,320,11.0,15.0,99,-99.99,,,-99.99,,2013-02-11 01:41:00,
2013-02-10 18:52:00,9.0,9.0,-100.00,NW,315,11.0,14.0,99,-99.99,,,-99.99,,2013-02-11 01:52:00,
2013-02-10 19:01:00,9.0,9.0,-100.00,NW,320,12.0,14.0,99,-99.99,,,-99.99,,2013-02-11 02:01:00,
2013-02-10 19:11:00,10.0,10.0,-100.00,NW,315,12.0,14.0,99,-99.99,,,-99.99,,2013-02-11 02:11:00,
2013-02-10 19:21:00,10.0,10.0,-100.00,NW,320,11.0,15.0,99,-99.99,,,-99.99,,2013-02-11 02:21:00,
2013-02-10 19:31:00,10.0,10.0,-100.00,NW,320,12.0,14.0,99,-99.99,,,-99.99,,2013-02-11 02:31:00,
2013-02-10 19:42:00,10.0,10.0,-100.00,NW,315,11.0,15.0,99,-99.99,,,-99.99,,2013-02-11 02:42:00,
2013-02-10 19:52:00,10.0,10.0,-100.00,NW,320,13.0,16.0,99,-99.99,,,-99.99,,2013-02-11 02:52:00,
2013-02-10 20:02:00,10.0,10.0,-100.00,NW,325,14.0,17.0,99,-99.99,,,-99.99,,2013-02-11 03:02:00,
2013-02-10 20:11:00,10.0,10.0,-100.00,NW,325,17.0,19.0,99,-99.99,,,-99.99,,2013-02-11 03:11:00,
2013-02-10 20:21:00,10.0,10.0,-100.00,NW,325,18.0,22.0,99,-99.99,,,-99.99,,2013-02-11 03:21:00,
2013-02-10 20:31:00,10.0,10.0,-100.00,NW,315,21.0,26.0,99,-99.99,,,-99.99,,2013-02-11 03:31:00,
2013-02-10 20:42:00,9.0,9.0,-100.00,NW,325,19.0,26.0,99,-99.99,,,-99.99,,2013-02-11 03:42:00,
2013-02-10 20:52:00,9.0,9.0,-100.00,NW,320,21.0,24.0,99,-99.99,,,-99.99,,2013-02-11 03:52:00,
2013-02-10 21:01:00,9.0,9.0,-100.00,NW,320,19.0,26.0,99,-99.99,,,-99.99,,2013-02-11 04:01:00,
2013-02-10 21:11:00,9.0,9.0,-100.00,NNW,330,22.0,26.0,99,-99.99,,,-99.99,,2013-02-11 04:11:00,
2013-02-10 21:21:00,9.0,9.0,-100.00,NW,320,19.0,25.0,99,-99.99,,,-99.99,,2013-02-11 04:21:00,
2013-02-10 21:31:00,8.0,8.0,-100.00,NW,320,21.0,25.0,99,-99.99,,,-99.99,,2013-02-11 04:31:00,
2013-02-10 21:42:00,8.0,8.0,-100.00,NW,320,21.0,24.0,99,-99.99,,,-99.99,,2013-02-11 04:42:00,
2013-02-10 21:51:00,8.0,8.0,-100.00,NW,320,18.0,24.0,99,-99.99,,,-99.99,,2013-02-11 04:51:00,
2013-02-10 22:01:00,7.0,7.0,-100.00,NW,315,18.0,23.0,99,-99.99,,,-99.99,,2013-02-11 05:01:00,
2013-02-10 22:11:00,7.0,7.0,-100.00,NW,310,16.0,21.0,99,-99.99,,,-99.99,,2013-02-11 05:11:00,
2013-02-10 22:22:00,7.0,7.0,-100.00,NW,310,12.0,19.0,99,-99.99,,,-99.99,,2013-02-11 05:22:00,
2013-02-10 22:31:00,6.0,6.0,-100.00,NW,310,10.0,14.0,99,-99.99,,,-99.99,,2013-02-11 05:31:00,
2013-02-10 22:42:00,6.0,6.0,-100.00,NW,310,10.0,13.0,99,-99.99,,,-99.99,,2013-02-11 05:42:00,
2013-02-10 22:52:00,6.0,6.0,-100.00,NW,305,9.0,12.0,99,-99.99,,,-99.99,,2013-02-11 05:52:00,
2013-02-10 23:02:00,6.0,6.0,-100.00,NW,305,7.0,11.0,99,-99.99,,,-99.99,,2013-02-11 06:02:00,
2013-02-10 23:11:00,6.0,6.0,-100.00,NW,305,6.0,9.0,99,-99.99,,,-99.99,,2013-02-11 06:11:00,
2013-02-10 23:21:00,6.0,5.0,-100.00,WNW,300,5.0,7.0,99,-99.99,,,-99.99,,2013-02-11 06:21:00,
2013-02-10 23:32:00,5.0,4.0,-100.00,NW,305,5.0,6.0,99,-99.99,,,-99.99,,2013-02-11 06:32:00,
2013-02-10 23:42:00,4.0,4.0,-100.00,WNW,295,5.0,6.0,99,-99.99,,,-99.99,,2013-02-11 06:42:00,
2013-02-10 23:51:00,4.0,4.0,-100.00,WNW,295,4.0,6.0,99,-99.99,,,-99.99,,2013-02-11 06:51:00,